Wind_Speed
13 13 13 13 14 14 14 14 14 12 11 11 11 10 10 10 9 8 8 8 7 7 7 6 6 6 5 5 6 5 5 4 3 3 2 3 3 4 3 3 3 3 4 4 4 3 3 2 2
12 12 13 12 14 15 15 14 14 13 11 11 10 10 10 9 8 8 8 7 6 6 6 6 6 6 6 5 6 5 4 4 4 3 3 3 4 4 3 3 3 3 4 4 4 4 3 3 2
11 11 12 13 14 15 15 15 14 13 12 12 10 10 10 9 8 8 7 6 6 6 6 6 6 6 6 6 6 5 5 4 4 4 4 4 4 4 3 3 3 3 3 3 3 2 2 3 3
11 11 12 13 14 15 15 15 14 14 12 12 11 11 10 10 9 8 7 7 6 6 6 6 6 6 6 6 6 6 5 5 5 5 5 4 3 4 3 3 3 3 3 3 2 2 2 2 3
11 12 12 13 14 14 15 14 14 14 13 12 11 11 11 10 9 9 8 7 7 6 6 6 6 6 6 6 6 5 5 5 5 5 5 4 4 3 3 3 4 3 3 3 2 1 1 2 2
11 12 12 14 14 14 14 14 14 13 13 12 11 11 10 10 10 9 9 9 8 7 7 7 6 6 6 6 6 5 4 5 5 5 4 5 5 4 4 4 4 4 3 2 1 1 1 1 2
11 12 12 13 14 14 14 14 13 13 12 12 11 11 11 10 10 9 9 9 9 9 8 8 7 7 6 6 6 6 5 4 4 5 5 5 5 5 4 4 4 3 2 1 1 1 1 1 2
10 11 11 13 13 14 14 14 13 12 12 12 11 11 11 10 10 9 10 10 10 10 9 8 8 7 7 6 6 6 6 5 5 5 5 5 5 5 4 4 3 2 2 1 1 0 0 2 2
9 9 11 12 12 13 13 13 12 12 11 11 11 11 11 10 9 9 9 10 9 10 9 8 7 7 7 7 6 5 6 5 5 5 5 5 5 5 4 3 3 2 2 1 1 0 1 2 2
8 9 10 11 12 12 13 12 12 11 11 10 11 11 11 10 9 10 10 9 10 9 9 9 8 7 7 7 6 5 5 5 5 5 4 5 5 5 4 3 3 2 2 1 1 1 2 3 3
8 9 10 11 11 11 12 12 12 12 11 10 10 10 12 11 10 10 9 9 9 9 9 9 8 8 8 7 7 7 6 6 5 5 5 5 4 4 4 3 3 2 2 1 1 1 2 3 3
6 8 10 11 11 11 11 11 11 11 10 10 10 10 11 11 11 10 10 9 9 9 9 9 9 9 9 8 7 7 6 6 7 6 6 5 5 5 4 3 2 2 1 1 2 2 2 3 3
5 8 9 10 11 11 11 11 10 10 9 9 9 9 10 11 11 10 10 10 10 10 10 10 10 9 9 8 7 7 6 6 7 7 6 6 5 5 4 4 3 2 1 1 2 3 3 3 3
5 7 8 8 9 9 10 10 10 10 9 9 8 8 9 10 10 10 10 11 11 11 10 9 10 9 9 8 7 7 7 7 7 6 6 5 5 4 4 3 3 3 2 2 2 3 3 3 3
3 5 6 7 6 7 8 9 9 9 9 9 8 7 8 8 8 8 9 10 10 9 9 9 9 9 8 8 7 7 6 6 6 6 6 6 5 4 4 4 4 4 4 3 3 4 4 3 3
2 3 5 5 5 6 7 8 8 7 7 7 7 7 8 7 6 7 7 8 8 8 8 8 8 8 8 8 7 6 5 5 5 5 5 5 5 4 4 4 4 4 4 4 4 5 5 4 3
1 1 2 4 4 5 6 7 7 6 6 6 6 7 7 6 5 6 6 7 7 8 7 7 8 8 7 7 7 6 5 5 4 5 4 4 4 4 4 4 4 4 5 5 5 5 5 5 4
3 1 1 3 4 4 5 7 6 5 4 4 5 5 6 5 4 4 5 5 6 7 7 7 7 7 7 6 6 6 5 4 4 4 4 3 3 3 3 3 4 4 4 4 5 5 5 4 5
5 4 2 2 3 4 5 6 5 4 2 3 4 4 4 4 3 3 3 4 5 5 6 6 6 6 6 5 5 5 4 4 4 3 3 3 3 3 3 3 4 4 5 5 5 5 5 5 5
7 6 4 3 4 5 6 5 4 5 4 4 4 4 4 3 3 2 2 3 3 4 4 4 5 5 5 5 5 4 4 3 3 3 3 2 3 3 3 4 4 4 4 4 4 5 5 5 5
10 8 7 6 6 6 6 5 5 5 5 5 4 4 4 4 3 3 2 2 2 3 3 4 4 4 4 4 4 4 4 3 3 3 3 2 3 3 3 3 4 4 4 5 5 5 5 5 5
12 11 10 10 8 7 7 5 4 5 5 5 4 5 5 4 3 3 3 3 3 2 2 2 2 2 2 3 3 3 3 3 2 2 3 3 3 3 4 4 4 5 5 5 5 5 5 6 6
13 13 13 11 10 9 7 7 5 5 5 5 6 6 5 5 4 4 4 4 3 3 3 3 2 2 2 2 3 3 3 2 2 2 3 3 3 4 5 5 5 5 5 5 5 6 6 7 8
15 15 14 13 12 10 8 8 6 6 6 6 6 7 6 5 5 6 5 5 4 4 3 3 3 3 3 3 3 4 4 4 3 3 3 3 4 4 5 5 5 5 5 6 7 8 8 8 9
16 15 15 14 13 11 10 9 7 7 8 8 7 7 7 6 6 7 6 6 5 5 5 5 4 4 4 3 4 4 5 5 4 4 4 4 5 5 5 6 6 6 6 8 9 9 9 10 10
18 17 16 15 14 12 11 11 9 8 8 9 8 8 8 8 8 7 7 7 7 7 7 7 6 6 5 5 5 5 4 5 5 5 5 5 5 6 6 7 7 7 8 8 9 10 11 11 11
19 18 17 17 16 14 13 11 10 10 9 9 9 9 8 8 7 8 8 8 8 8 9 9 8 7 7 7 6 6 6 6 6 6 6 6 7 7 7 7 8 9 10 10 11 11 12 12 12
19 19 19 18 17 16 15 13 12 11 10 10 10 10 9 9 8 8 8 9 10 10 10 10 10 10 10 9 8 8 8 8 7 7 7 7 8 8 8 9 9 10 11 12 12 13 13 13 13
21 21 20 20 19 18 17 14 13 13 13 12 11 11 12 11 10 10 10 10 11 11 11 11 11 12 11 10 10 10 10 9 9 8 8 9 9 10 10 11 11 12 13 13 14 15 14 14 14
24 23 22 21 20 20 19 16 15 15 15 14 13 13 13 12 11 11 12 13 13 13 13 13 13 13 13 13 12 12 12 11 11 10 10 11 11 11 12 13 13 13 14 14 15 16 16 16 16
Wind_Direction
72 68 67 67 68 71 69 67 65 63 57 54 53 51 51 54 55 59 64 65 67 64 63 61 62 61 61 70 90 97 105 116 127 132 128 131 137 144 144 146 160 175 190 193 191 190 201 187 191
71 69 68 67 68 72 70 69 64 60 53 51 50 46 47 47 53 58 61 64 64 59 58 60 62 62 60 62 73 85 90 104 120 133 132 136 137 141 144 150 160 176 188 194 195 203 193 187 189
72 68 67 67 70 71 69 66 62 59 53 51 51 47 46 48 53 57 61 61 57 58 61 64 68 67 64 67 71 76 79 93 113 127 127 127 135 136 137 137 148 164 170 179 191 198 195 192 197
70 69 68 67 69 69 67 63 60 59 57 53 55 55 54 55 55 56 61 57 54 57 63 70 73 72 69 76 83 84 83 87 99 116 119 126 129 131 136 135 140 153 163 166 174 193 214 208 221
70 69 68 69 68 68 66 62 60 61 58 55 55 59 58 56 55 57 60 58 55 58 66 71 71 69 68 75 79 83 86 84 91 112 117 123 129 125 133 137 140 141 143 153 180 216 240 256 245
70 67 69 70 68 68 66 60 58 60 59 55 53 57 60 56 54 55 57 57 58 64 67 65 68 69 67 75 77 85 88 86 86 102 114 118 122 119 115 123 130 130 136 158 187 199 265 281 258
72 68 68 68 67 67 65 60 58 55 57 55 54 56 58 58 56 56 59 59 60 64 66 65 65 65 71 76 82 87 90 97 92 95 106 112 119 121 113 117 124 131 136 133 168 220 256 287 275
70 67 67 66 64 62 62 58 58 57 58 56 55 54 55 59 57 58 60 61 61 62 64 65 65 66 75 79 86 90 96 101 100 99 106 110 114 117 112 116 116 122 134 121 103 176 289 321 324
68 65 63 61 60 57 55 54 55 58 56 54 55 56 56 57 57 58 60 59 61 61 60 64 67 70 75 79 86 89 91 99 109 108 106 109 111 107 109 118 108 106 105 91 66 3 333 331 333
68 63 57 53 52 53 49 48 50 50 51 50 54 56 55 52 52 54 56 55 57 60 61 63 65 68 68 69 69 72 74 82 99 112 110 108 111 110 107 110 105 108 91 65 35 0 344 340 336
71 66 61 54 51 51 47 49 47 46 47 47 52 56 54 52 51 54 55 55 56 58 60 61 64 67 67 66 69 68 65 69 79 99 111 112 111 105 103 98 95 106 82 57 21 357 348 333 324
70 67 63 57 53 52 50 51 47 44 46 46 47 54 56 56 53 52 54 56 57 58 63 63 65 68 67 66 67 70 69 73 76 89 108 111 107 101 96 89 81 87 73 5 328 325 329 321 323
74 75 67 58 54 52 50 50 48 45 46 44 45 46 51 55 55 54 53 54 57 56 58 66 66 67 65 65 65 69 75 82 86 91 100 106 106 106 100 88 71 43 18 356 332 327 319 314 326
74 78 70 56 51 48 48 48 47 45 42 42 43 45 48 53 53 52 53 56 56 55 56 61 65 62 61 61 66 74 76 81 80 88 90 93 95 95 89 85 69 47 39 26 356 337 330 321 342
73 72 65 56 44 42 47 47 44 43 37 43 44 41 43 52 52 46 47 51 54 55 54 57 61 60 59 56 59 70 70 72 78 83 84 80 78 74 67 61 57 51 47 26 0 347 348 357 7
78 76 67 53 38 36 37 42 41 35 27 35 41 41 40 44 46 43 44 47 50 51 52 55 54 54 54 51 54 62 60 62 73 76 77 75 70 65 59 55 51 42 33 24 9 6 11 18 12
180 113 76 42 16 17 22 25 28 28 24 26 29 31 36 38 44 40 41 45 46 47 48 53 53 51 50 50 54 55 51 48 54 63 63 63 63 63 56 55 45 34 26 21 15 15 20 16 8
203 193 83 26 12 6 7 11 13 19 21 22 17 19 26 34 36 41 38 38 41 42 44 49 49 44 47 51 53 52 47 45 48 53 54 52 53 53 52 49 39 30 24 19 15 13 9 3 357
227 235 263 336 323 330 346 353 357 7 4 2 3 5 13 21 26 34 28 31 36 36 38 40 41 38 41 46 48 50 45 44 47 53 59 47 45 48 43 33 21 18 22 23 18 9 359 355 352
240 242 254 275 293 309 324 343 347 337 332 337 337 336 342 1 6 12 11 10 23 26 28 31 35 34 34 35 34 32 32 35 41 44 46 35 26 14 13 18 19 11 7 6 5 1 353 347 344
244 244 250 259 272 294 311 333 333 318 317 319 323 320 315 324 337 334 333 336 349 358 358 10 19 23 22 21 20 19 18 24 31 35 27 20 15 9 2 9 3 354 347 346 349 348 346 339 333
247 248 252 259 266 280 298 315 325 319 312 309 312 307 296 293 299 305 308 315 316 320 318 334 355 3 5 1 358 354 1 7 19 19 15 10 5 2 1 357 346 342 342 342 340 337 333 330 327
248 251 255 259 265 272 286 295 307 305 309 300 302 308 295 283 280 281 290 297 298 301 296 301 309 313 331 347 353 352 341 339 350 354 348 338 335 336 340 343 337 334 332 331 330 328 326 326 323
245 251 255 260 265 271 277 282 290 292 305 302 298 299 288 275 270 266 274 283 285 286 282 284 290 298 309 320 332 333 331 328 325 328 317 314 314 321 325 331 331 326 322 317 316 319 322 325 322
243 249 256 261 265 272 273 272 279 291 295 297 301 300 288 277 273 267 267 275 277 281 276 271 270 276 287 297 306 314 316 317 316 316 310 306 305 307 314 320 324 320 317 312 309 310 311 314 315
244 250 256 263 268 271 270 272 279 286 291 294 297 296 292 285 280 274 270 270 275 280 278 271 267 269 274 283 292 298 300 306 309 310 306 302 301 304 307 312 317 318 316 314 312 309 309 309 314
240 246 253 258 263 265 267 273 280 283 285 290 293 291 294 294 296 288 277 273 279 282 279 273 270 269 274 281 284 286 289 293 299 300 302 301 298 299 303 303 306 307 308 308 308 308 309 310 310
239 243 247 253 259 262 267 271 278 278 279 286 290 286 291 298 296 292 287 284 284 287 285 278 272 270 275 278 278 281 283 288 289 290 292 297 297 294 294 297 304 304 303 301 304 306 307 307 306
240 242 247 253 257 261 265 271 276 280 281 285 292 290 290 295 293 288 285 285 284 282 281 276 270 270 272 274 274 275 278 284 287 290 289 288 290 292 293 295 298 299 298 298 302 303 303 303 306
243 246 249 253 256 260 264 269 272 277 277 280 286 290 289 286 287 288 287 286 281 280 278 275 270 268 269 267 267 270 272 277 282 285 286 285 286 289 291 291 291 292 295 299 301 301 302 304 302
Height
5889 5888 5888 5888 5887 5886 5884 5884 5883 5883 5883 5882 5882 5881 5881 5881 5881 5883 5881 5879 5880 5879 5879 5878 5878 5877 5877 5877 5877 5877 5878 5878 5878 5879 5879 5879 5880 5880 5881 5881 5882 5883 5884 5885 5885 5886 5887 5887 5888
5891 5891 5891 5890 5889 5887 5887 5886 5885 5885 5885 5884 5883 5882 5882 5881 5881 5881 5881 5881 5880 5880 5880 5879 5878 5878 5878 5877 5877 5877 5878 5878 5878 5878 5879 5879 5879 5880 5881 5881 5882 5882 5883 5884 5885 5886 5886 5887 5888
5893 5893 5893 5892 5890 5889 5889 5888 5887 5886 5886 5885 5885 5884 5884 5883 5883 5882 5882 5882 5881 5881 5881 5880 5879 5879 5878 5878 5878 5878 5878 5877 5877 5877 5878 5879 5879 5880 5880 5881 5882 5882 5883 5884 5885 5885 5886 5886 5887
5895 5895 5895 5893 5892 5891 5890 5889 5888 5888 5888 5887 5886 5886 5885 5885 5884 5884 5883 5883 5882 5882 5881 5881 5880 5879 5879 5879 5878 5878 5878 5878 5877 5878 5878 5879 5880 5880 5881 5881 5882 5883 5884 5884 5885 5885 5886 5886 5887
5897 5897 5896 5894 5893 5892 5892 5891 5890 5890 5889 5889 5888 5887 5887 5886 5886 5885 5884 5884 5883 5883 5882 5881 5881 5880 5880 5879 5879 5879 5879 5879 5878 5878 5878 5879 5880 5881 5881 5882 5882 5883 5884 5884 5885 5885 5885 5886 5886
5899 5898 5897 5896 5895 5894 5893 5893 5892 5892 5891 5891 5890 5889 5888 5888 5887 5886 5886 5885 5884 5883 5883 5882 5881 5881 5881 5880 5880 5879 5879 5879 5879 5879 5879 5880 5881 5882 5882 5883 5883 5883 5884 5884 5885 5885 5885 5886 5886
5901 5900 5898 5898 5897 5896 5896 5894 5894 5893 5893 5893 5892 5890 5889 5889 5888 5887 5887 5886 5885 5884 5884 5883 5882 5882 5881 5881 5881 5880 5880 5880 5880 5880 5880 5881 5881 5882 5883 5883 5883 5884 5884 5885 5885 5885 5885 5885 5885
5901 5902 5900 5899 5899 5898 5897 5896 5895 5895 5895 5894 5893 5892 5891 5890 5889 5889 5888 5887 5887 5886 5885 5884 5883 5883 5882 5881 5881 5881 5881 5880 5880 5881 5881 5882 5882 5882 5883 5883 5884 5884 5884 5885 5885 5885 5885 5885 5885
5903 5904 5902 5901 5900 5900 5899 5898 5897 5897 5896 5895 5894 5894 5893 5892 5891 5890 5889 5888 5887 5887 5886 5885 5884 5884 5883 5882 5882 5882 5882 5881 5881 5881 5881 5882 5882 5883 5883 5884 5884 5884 5884 5885 5885 5885 5884 5884 5884
5905 5904 5904 5903 5902 5901 5900 5900 5899 5898 5897 5897 5896 5895 5894 5893 5892 5891 5890 5889 5889 5888 5887 5886 5886 5885 5884 5883 5883 5883 5883 5882 5882 5882 5882 5882 5883 5883 5884 5884 5884 5884 5884 5884 5884 5884 5884 5884 5884
5906 5906 5905 5905 5904 5903 5902 5901 5900 5900 5899 5898 5897 5896 5895 5894 5893 5892 5891 5891 5890 5889 5888 5888 5887 5886 5885 5885 5884 5884 5883 5883 5883 5883 5883 5883 5884 5884 5884 5884 5884 5884 5884 5884 5884 5884 5884 5884 5884
5907 5907 5906 5906 5905 5904 5903 5902 5902 5901 5901 5900 5898 5898 5897 5895 5895 5894 5893 5892 5891 5890 5890 5889 5888 5887 5887 5886 5885 5885 5884 5884 5884 5883 5884 5884 5885 5885 5885 5885 5885 5885 5885 5884 5884 5884 5884 5884 5883
5908 5908 5908 5907 5907 5906 5905 5904 5903 5903 5902 5901 5900 5899 5898 5897 5896 5895 5894 5893 5892 5892 5891 5890 5890 5889 5888 5887 5886 5886 5885 5885 5885 5885 5885 5885 5885 5885 5885 5885 5885 5885 5884 5884 5884 5884 5884 5883 5883
5909 5909 5909 5908 5908 5907 5907 5905 5905 5904 5903 5902 5901 5900 5899 5898 5897 5896 5895 5895 5894 5893 5892 5891 5891 5890 5889 5888 5888 5887 5887 5886 5886 5886 5886 5886 5886 5886 5886 5886 5885 5885 5884 5884 5884 5884 5883 5883 5882
5910 5910 5910 5909 5908 5908 5908 5907 5906 5905 5904 5902 5901 5901 5900 5899 5898 5898 5897 5896 5895 5894 5894 5893 5892 5891 5891 5890 5889 5888 5888 5888 5888 5887 5887 5887 5887 5887 5887 5886 5886 5885 5885 5884 5884 5883 5882 5882 5882
5911 5911 5910 5910 5909 5908 5910 5908 5907 5906 5905 5903 5902 5901 5901 5900 5899 5898 5898 5897 5896 5896 5895 5894 5893 5893 5892 5891 5890 5890 5889 5889 5889 5888 5888 5888 5888 5887 5887 5886 5886 5885 5884 5884 5883 5883 5882 5882 5882
5911 5911 5910 5910 5909 5909 5908 5908 5907 5906 5905 5904 5903 5902 5901 5900 5900 5899 5898 5898 5897 5896 5896 5895 5894 5893 5893 5892 5891 5890 5890 5890 5889 5889 5889 5888 5888 5888 5887 5886 5886 5885 5884 5884 5883 5883 5882 5882 5882
5911 5911 5911 5910 5909 5909 5908 5908 5907 5906 5906 5905 5904 5903 5902 5901 5900 5899 5899 5899 5898 5897 5896 5895 5895 5894 5893 5893 5892 5892 5891 5891 5890 5890 5889 5889 5888 5888 5887 5887 5886 5885 5884 5884 5883 5882 5882 5882 5882
5909 5910 5910 5910 5909 5909 5908 5908 5907 5906 5906 5905 5904 5903 5902 5901 5901 5900 5899 5899 5899 5898 5897 5896 5896 5895 5894 5893 5893 5892 5892 5891 5891 5890 5890 5889 5889 5888 5887 5887 5886 5885 5885 5884 5883 5882 5882 5882 5881
5908 5909 5910 5910 5909 5908 5908 5907 5907 5907 5906 5905 5905 5904 5902 5901 5900 5900 5900 5899 5899 5898 5898 5897 5896 5896 5895 5894 5893 5893 5892 5892 5891 5890 5890 5889 5889 5888 5887 5887 5886 5885 5885 5884 5883 5883 5882 5882 5881
5907 5909 5909 5909 5908 5907 5907 5908 5907 5907 5906 5905 5904 5903 5902 5901 5900 5900 5899 5899 5899 5898 5898 5897 5897 5896 5895 5894 5893 5893 5892 5892 5891 5890 5890 5889 5889 5888 5887 5886 5886 5885 5884 5884 5883 5882 5882 5881 5880
5906 5907 5907 5907 5907 5907 5907 5907 5907 5906 5905 5904 5904 5903 5902 5901 5900 5900 5899 5899 5898 5898 5898 5897 5896 5896 5895 5894 5893 5893 5892 5892 5891 5890 5890 5889 5888 5888 5887 5886 5885 5884 5884 5883 5882 5882 5881 5880 5880
5904 5905 5905 5906 5906 5906 5906 5906 5907 5905 5904 5904 5903 5901 5901 5900 5900 5899 5899 5898 5898 5897 5897 5897 5896 5895 5895 5894 5893 5892 5892 5891 5890 5890 5889 5888 5888 5887 5886 5885 5884 5883 5882 5882 5881 5881 5880 5879 5879
5902 5903 5903 5903 5904 5905 5905 5905 5905 5904 5903 5903 5902 5901 5900 5899 5899 5899 5898 5897 5897 5896 5896 5896 5895 5895 5894 5894 5893 5892 5891 5891 5890 5889 5888 5887 5887 5886 5885 5884 5883 5882 5881 5881 5880 5879 5879 5878 5877
5899 5900 5901 5901 5901 5903 5903 5903 5904 5903 5902 5901 5900 5899 5898 5898 5897 5897 5897 5896 5896 5895 5895 5895 5894 5894 5894 5893 5892 5891 5891 5890 5889 5888 5887 5886 5885 5885 5884 5883 5882 5881 5880 5879 5879 5878 5877 5876 5875
5896 5897 5899 5899 5899 5900 5901 5900 5902 5901 5901 5900 5899 5898 5897 5897 5896 5896 5895 5895 5894 5894 5894 5893 5893 5893 5892 5892 5891 5890 5889 5889 5888 5887 5886 5885 5884 5883 5882 5881 5880 5880 5879 5878 5877 5876 5875 5873 5872
5892 5894 5895 5896 5896 5897 5897 5898 5899 5899 5899 5898 5897 5896 5895 5895 5894 5894 5894 5893 5893 5892 5892 5891 5891 5891 5891 5890 5890 5889 5888 5887 5887 5886 5885 5884 5883 5882 5881 5880 5879 5878 5877 5876 5875 5874 5872 5871 5870
5889 5891 5892 5892 5893 5893 5895 5895 5897 5897 5896 5896 5895 5894 5893 5892 5892 5892 5891 5891 5891 5890 5890 5889 5889 5889 5889 5888 5888 5887 5887 5886 5885 5884 5883 5882 5881 5880 5879 5878 5877 5876 5874 5873 5872 5871 5869 5868 5867
5885 5887 5888 5889 5890 5890 5891 5895 5894 5894 5893 5893 5892 5891 5890 5890 5889 5889 5888 5888 5888 5888 5887 5887 5886 5886 5886 5885 5885 5885 5884 5883 5882 5881 5881 5880 5879 5877 5876 5875 5874 5873 5872 5871 5869 5868 5866 5865 5864
5880 5882 5884 5886 5886 5887 5887 5892 5890 5890 5890 5890 5890 5889 5888 5887 5886 5886 5886 5885 5885 5884 5884 5883 5883 5882 5882 5882 5882 5881 5881 5880 5880 5879 5878 5877 5876 5875 5873 5872 5871 5870 5869 5868 5866 5865 5863 5861 5860